Simultaneous Nadir Overpasses (SNOs) Predictions

Prediction of SNOs between GOES-15 and NOAA-20 Satellite Orbit:

Table of predicted SNOs for the next 14.0 days since TLE Epoch: 11/13/2021
Index Date Time (GOES-15) GOES-15 Lat,Lon NOAA-20 Lat,Lon Distance(km) Time Diff (sec)
1 11/14/2021 10:05:08 0.09,-128.44 0.53,-130.42 225.75 80
2 11/15/2021 09:49:03 0.11,-128.43 -0.48,-125.88 290.90 80
3 11/16/2021 22:08:18 -0.08,-128.42 -0.70,-131.18 314.78 80
4 11/17/2021 21:52:13 -0.10,-128.42 0.31,-126.65 201.72 80
5 11/19/2021 10:11:20 0.07,-128.41 0.84,-131.92 399.89 80
6 11/20/2021 09:55:15 0.08,-128.40 -0.17,-127.38 116.13 80
7 11/21/2021 22:14:30 -0.06,-128.37 -1.00,-132.68 490.90 80
8 11/22/2021 21:58:24 -0.07,-128.36 0.01,-128.15 24.94 80
9 11/25/2021 09:58:45 0.06,-128.32 0.19,-128.87 62.66 80
10 11/26/2021 09:42:40 0.07,-128.30 -0.82,-124.33 452.47 80
